Regional Weather Roundup
Issued by NWS

Home | Current Version | Previous Version | Graphics & Text | Print | Product List | Glossary On
Versions: 1 2 3 4 5 6 7 8 9 10 11 12 13 14 15 16 17 18 19 20 21 22 23 24 25 26 27 28 29 30 31 32 33 34 35 36 37 38 39 40 41 42 43 44 45 46 47 48 49 50
000
ASUS43 KFSD 271910
RWRSD

WEATHER ROUNDUP FOR SOUTH DAKOTA
NATIONAL WEATHER SERVICE SIOUX FALLS SD
200 PM CDT MON JUL 27 2015

NOTE: "FAIR" INDICATES FEW OR NO CLOUDS BELOW 12,000 FEET WITH NO
SIGNIFICANT WEATHER AND/OR OBSTRUCTIONS TO VISIBILITY.


SDZ001>005-009-010-012>017-272000-
NORTHWEST AND NORTH CENTRAL SOUTH DAKOTA

CITY           SKY/WX    TMP DP  RH WIND       PRES   REMARKS
BUFFALO          N/A     88  59  37 S6        29.65F
FAITH            N/A     90  60  36 S22       29.73F
MOBRIDGE       SUNNY     91  68  46 SE22G28   29.71F HX  95
$$

SDZ012>016-024>037-041>051-057-063-072>074-272000-
SOUTHWEST AND SOUTH CENTRAL SOUTH DAKOTA

CITY           SKY/WX    TMP DP  RH WIND       PRES   REMARKS
RAPID CTY ARPT SUNNY     88  66  48 S16       29.73F
PIERRE         SUNNY     93  64  38 SE18G30   29.72F
CUSTER         SUNNY     88  43  20 SE8       29.89F
ELLSWORTH AFB  PTSUNNY   88  64  45 SE16      29.72F
PHILIP         SUNNY     89  67  47 SE20G29   29.73F
PINE RIDGE     SUNNY     91  63  39 SE14      29.76F
SPEARFISH      FAIR      84  64  51 E9        29.77F
WINNER         FAIR      91  63  39 SE20G26   29.78F
$$

SDZ004>011-016>023-039-040-272000-
NORTHEAST SOUTH DAKOTA

CITY           SKY/WX    TMP DP  RH WIND       PRES   REMARKS
ABERDEEN       MOSUNNY   91  76  61 S16       29.78F HX 103
WATERTOWN      MOSUNNY   88  72  58 S17G23    29.85S
BROOKINGS      SUNNY     86  68  54 S17G23    29.88R
SISSETON         N/A     85  74  69 S17G26    29.82F
$$

SDZ017-020-022-023-036>040-048>070-272000-
SOUTHEAST SOUTH DAKOTA

CITY           SKY/WX    TMP DP  RH WIND       PRES   REMARKS
SIOUX FALLS    MOSUNNY   84  68  58 S17G24    29.86S
HURON          SUNNY     89  73  59 S16G24    29.78F HX  97
CHAMBERLAIN    MOSUNNY   89  69  50 SE15G22   29.77F
MITCHELL       SUNNY     86  75  69 S24G31    29.81F HX  95
YANKTON        MOSUNNY   84  73  70 SE13      29.82F
$$

ABBREVIATIONS USED IN REMARKS
   TC - TEMPERATURE IN CELSIUS
  WCI - WIND CHILL INDEX
   HX - HEAT INDEX
  VSB - VISIBILITY



USA.gov is the U.S. government's official web portal to all federal, state and local government web resources and services.